When you browse on this site, cookies collect data to enhance your experience and personalize the content and advertising you see.
Visit our Privacy Policy to learn more. By continuing to use the site, you agree to this use of cookies and data.
  • En España
  • Lista de países
  • Para 7 días
  • Temperatura del agua
  • El tiempo en el mapa
  • Informadores
  • user-avatar
    Iniciar sesión

    Tiempo cada hora Alboraya

    Hoy, 3 Junio, Miércoles

    Tiempo Temperatura Precipitaciones Viento Presión Humedad
    00:00 +21°C° 0 mm 1 mps 759 mmHg 82%
    01:00 +21°C° 0 mm 1 mps 758 mmHg 81%
    02:00 +21°C° 0 mm 1 mps 758 mmHg 79%
    03:00 +21°C° 0 mm 1 mps 757 mmHg 77%
    04:00 +22°C° 0 mm 1 mps 757 mmHg 74%
    05:00 +22°C° 0 mm 1 mps 757 mmHg 71%
    06:00 +23°C° 0 mm 1 mps 757 mmHg 67%
    07:00 +25°C° 0 mm 1 mps 757 mmHg 59%
    08:00 +27°C° 0 mm 1 mps 757 mmHg 50%
    09:00 +30°C° 0 mm 2 mps 757 mmHg 41%
    10:00 +31°C° 0 mm 3 mps 756 mmHg 37%
    11:00 +34°C° 0 mm 4 mps 755 mmHg 33%
    12:00 +35°C° 0 mm 5 mps 755 mmHg 29%
    13:00 +36°C° 0 mm 5 mps 754 mmHg 28%
    14:00 +36°C° 0 mm 5 mps 753 mmHg 26%
    15:00 +38°C° 0 mm 6 mps 753 mmHg 24%
    16:00 +36°C° 0 mm 6 mps 752 mmHg 24%
    17:00 +35°C° 0 mm 5 mps 752 mmHg 25%
    18:00 +35°C° 0 mm 5 mps 752 mmHg 25%
    19:00 +33°C° 0 mm 5 mps 752 mmHg 29%
    20:00 +32°C° 0 mm 5 mps 752 mmHg 32%
    21:00 +29°C° 0 mm 5 mps 752 mmHg 35%
    22:00 +29°C° 0 mm 5 mps 752 mmHg 37%
    23:00 +28°C° 0 mm 4 mps 752 mmHg 39%

    Mañana, 4 Junio, Jueves

    Tiempo Temperatura Precipitaciones Viento Presión Humedad
    00:00 +27°C° 0 mm 4 mps 752 mmHg 41%
    01:00 +26°C° 0 mm 4 mps 752 mmHg 45%
    02:00 +25°C° 0 mm 4 mps 752 mmHg 49%
    03:00 +25°C° 0 mm 4 mps 751 mmHg 53%
    04:00 +25°C° 0 mm 5 mps 751 mmHg 54%
    05:00 +25°C° 0 mm 5 mps 752 mmHg 56%
    06:00 +24°C° 0 mm 6 mps 752 mmHg 57%
    07:00 +26°C° 0.1 mm 7 mps 752 mmHg 51%
    08:00 +28°C° 0.1 mm 7 mps 752 mmHg 45%
    09:00 +29°C° 0.1 mm 8 mps 752 mmHg 40%
    10:00 +28°C° 0.2 mm 8 mps 752 mmHg 43%
    11:00 +27°C° 0.2 mm 7 mps 752 mmHg 46%
    12:00 +26°C° 0.2 mm 7 mps 752 mmHg 49%
    13:00 +26°C° 0.1 mm 7 mps 752 mmHg 44%
    14:00 +27°C° 0.1 mm 7 mps 752 mmHg 38%
    15:00 +28°C° 0.1 mm 7 mps 752 mmHg 33%
    16:00 +28°C° 0 mm 7 mps 752 mmHg 32%
    17:00 +28°C° 0 mm 6 mps 752 mmHg 31%
    18:00 +28°C° 0 mm 6 mps 752 mmHg 30%
    19:00 +26°C° 0 mm 5 mps 753 mmHg 34%
    20:00 +25°C° 0 mm 5 mps 754 mmHg 37%
    21:00 +22°C° 0 mm 4 mps 755 mmHg 41%
    22:00 +21°C° 0 mm 4 mps 755 mmHg 43%
    23:00 +20°C° 0 mm 4 mps 755 mmHg 46%

    Pasado mañana, 5 Junio, Viernes

    Tiempo Temperatura Precipitaciones Viento Presión Humedad
    00:00 +19°C° 0 mm 3 mps 755 mmHg 49%
    01:00 +19°C° 0 mm 3 mps 756 mmHg 50%
    02:00 +18°C° 0 mm 3 mps 756 mmHg 52%
    03:00 +18°C° 0 mm 3 mps 756 mmHg 54%
    04:00 +18°C° 0 mm 3 mps 756 mmHg 53%
    05:00 +19°C° 0 mm 3 mps 756 mmHg 52%
    06:00 +19°C° 0 mm 3 mps 756 mmHg 51%
    07:00 +22°C° 0 mm 3 mps 757 mmHg 44%
    08:00 +25°C° 0 mm 3 mps 757 mmHg 37%
    09:00 +27°C° 0 mm 3 mps 757 mmHg 30%
    10:00 +29°C° 0 mm 3 mps 757 mmHg 27%
    11:00 +32°C° 0 mm 4 mps 756 mmHg 24%
    12:00 +34°C° 0 mm 5 mps 756 mmHg 22%
    13:00 +33°C° 0 mm 6 mps 756 mmHg 24%
    14:00 +33°C° 0 mm 6 mps 756 mmHg 25%
    15:00 +33°C° 0 mm 7 mps 756 mmHg 27%
    16:00 +32°C° 0 mm 6 mps 756 mmHg 32%
    17:00 +30°C° 0 mm 5 mps 756 mmHg 37%
    18:00 +29°C° 0 mm 4 mps 756 mmHg 42%
    19:00 +27°C° 0 mm 4 mps 756 mmHg 50%
    20:00 +25°C° 0 mm 3 mps 757 mmHg 57%
    21:00 +21°C° 0 mm 3 mps 757 mmHg 65%
    22:00 +21°C° 0 mm 2 mps 757 mmHg 65%
    23:00 +21°C° 0 mm 2 mps 757 mmHg 66%

    6 Junio, Sábado

    Tiempo Temperatura Precipitaciones Viento Presión Humedad
    00:00 +20°C° 0 mm 2 mps 757 mmHg 67%
    01:00 +20°C° 0 mm 2 mps 757 mmHg 65%
    02:00 +20°C° 0 mm 2 mps 757 mmHg 62%
    03:00 +21°C° 0 mm 1 mps 757 mmHg 60%
    04:00 +22°C° 0 mm 1 mps 757 mmHg 55%
    05:00 +22°C° 0 mm 1 mps 757 mmHg 51%
    06:00 +23°C° 0 mm 1 mps 757 mmHg 46%
    07:00 +26°C° 0 mm 1 mps 757 mmHg 39%
    08:00 +28°C° 0 mm 2 mps 757 mmHg 32%
    09:00 +30°C° 0 mm 2 mps 757 mmHg 25%
    10:00 +33°C° 0 mm 3 mps 757 mmHg 23%
    11:00 +34°C° 0 mm 4 mps 757 mmHg 21%
    12:00 +35°C° 0 mm 5 mps 756 mmHg 19%
    13:00 +35°C° 0 mm 5 mps 756 mmHg 20%
    14:00 +36°C° 0 mm 5 mps 755 mmHg 22%
    15:00 +36°C° 0 mm 5 mps 755 mmHg 23%
    16:00 +34°C° 0 mm 5 mps 754 mmHg 30%
    17:00 +33°C° 0 mm 4 mps 754 mmHg 37%
    18:00 +30°C° 0 mm 4 mps 754 mmHg 44%
    19:00 +28°C° 0 mm 3 mps 754 mmHg 50%
    20:00 +26°C° 0 mm 3 mps 755 mmHg 56%
    21:00 +24°C° 0 mm 2 mps 755 mmHg 63%
    22:00 +24°C° 0 mm 2 mps 755 mmHg 62%
    23:00 +24°C° 0 mm 2 mps 755 mmHg 61%

    7 Junio, Domingo

    Tiempo Temperatura Precipitaciones Viento Presión Humedad
    00:00 +23°C° 0 mm 2 mps 755 mmHg 60%
    01:00 +23°C° 0 mm 2 mps 755 mmHg 55%
    02:00 +23°C° 0 mm 2 mps 755 mmHg 49%
    03:00 +22°C° 0 mm 3 mps 755 mmHg 43%
    04:00 +24°C° 0 mm 3 mps 755 mmHg 42%
    05:00 +24°C° 0 mm 3 mps 756 mmHg 41%
    06:00 +25°C° 0 mm 3 mps 756 mmHg 39%
    07:00 +27°C° 0 mm 4 mps 756 mmHg 35%
    08:00 +29°C° 0 mm 5 mps 756 mmHg 31%
    09:00 +32°C° 0 mm 6 mps 757 mmHg 27%
    10:00 +32°C° 0 mm 6 mps 757 mmHg 27%
    11:00 +33°C° 0 mm 6 mps 757 mmHg 26%
    12:00 +34°C° 0 mm 6 mps 756 mmHg 26%
    13:00 +33°C° 0 mm 6 mps 756 mmHg 30%
    14:00 +32°C° 0 mm 6 mps 756 mmHg 35%
    15:00 +32°C° 0 mm 5 mps 756 mmHg 39%
    16:00 +30°C° 0 mm 5 mps 756 mmHg 44%
    17:00 +29°C° 0 mm 5 mps 756 mmHg 49%
    18:00 +28°C° 0 mm 4 mps 756 mmHg 53%
    19:00 +26°C° 0.1 mm 4 mps 757 mmHg 60%
    20:00 +24°C° 0.1 mm 3 mps 757 mmHg 67%
    21:00 +22°C° 0.1 mm 3 mps 758 mmHg 74%
    22:00 +21°C° 0.3 mm 3 mps 758 mmHg 75%
    23:00 +21°C° 0.3 mm 3 mps 758 mmHg 75%

    8 Junio, Lunes

    Tiempo Temperatura Precipitaciones Viento Presión Humedad
    00:00 +21°C° 0.3 mm 3 mps 758 mmHg 76%
    01:00 +20°C° 0.1 mm 3 mps 758 mmHg 78%
    02:00 +20°C° 0.1 mm 3 mps 758 mmHg 80%
    03:00 +20°C° 0.1 mm 3 mps 758 mmHg 82%
    04:00 +20°C° 0.4 mm 3 mps 758 mmHg 82%
    05:00 +20°C° 0.4 mm 3 mps 759 mmHg 82%
    06:00 +21°C° 0.4 mm 3 mps 759 mmHg 81%
    07:00 +21°C° 0.7 mm 4 mps 759 mmHg 78%
    08:00 +22°C° 0.7 mm 4 mps 759 mmHg 74%
    09:00 +22°C° 0.7 mm 4 mps 759 mmHg 71%
    10:00 +25°C° 0.3 mm 4 mps 759 mmHg 65%
    11:00 +26°C° 0.3 mm 5 mps 759 mmHg 60%
    12:00 +27°C° 0.3 mm 6 mps 760 mmHg 55%
    13:00 +27°C° 0.6 mm 6 mps 759 mmHg 58%
    14:00 +26°C° 0.6 mm 6 mps 759 mmHg 62%
    15:00 +26°C° 0.6 mm 6 mps 759 mmHg 65%
    16:00 +25°C° 1.2 mm 5 mps 759 mmHg 69%
    17:00 +23°C° 1.2 mm 4 mps 759 mmHg 73%
    18:00 +22°C° 1.2 mm 4 mps 760 mmHg 77%
    19:00 +22°C° 0.7 mm 3 mps 760 mmHg 81%
    20:00 +21°C° 0.7 mm 3 mps 761 mmHg 84%
    21:00 +20°C° 0.7 mm 2 mps 761 mmHg 88%
    22:00 +20°C° 0.2 mm 2 mps 761 mmHg 88%
    23:00 +20°C° 0.2 mm 2 mps 761 mmHg 89%
    Mostrar más